AirNav   Phillips 66 Aviation Fuel
 
 993 users online  

7K6 Wilcox Field Airport
Anthony, Kansas, USA

GOING TO ANTHONY?


FAA INFORMATION EFFECTIVE 19 JULY 2018

Location

FAA Identifier: 7K6
Lat/Long: 37-04-57.6000N / 097-57-52.1000W
37-04.960000N / 097-57.868333W
37.0826667 / -97.9644722
(estimated)
Elevation: 1263 ft. / 385.0 m (surveyed)
Variation: 07E (1985)
From city: 5 miles SE of ANTHONY, KS
Time zone: UTC -5 (UTC -6 during Standard Time)
Zip code: 67003

Airport Operations

Airport use: Open to the public
Activation date: 04/1968
Control tower: no
ARTCC: KANSAS CITY CENTER
FSS: WICHITA FLIGHT SERVICE STATION
NOTAMs facility: ICT (NOTAM-D service available)
Attendance: UNATNDD
Wind indicator: yes
Segmented circle: no

Airport Communications

CTAF: 122.9

Nearby radio navigation aids

VOR radial/distance  VOR name  Freq  Var
ANYr108/10.9ANTHONY VORTAC112.9007E

Airport Services

Parking: tiedowns
Airframe service: MAJOR
Powerplant service: NONE
Bottled oxygen: NONE
Bulk oxygen: NONE

Runway Information

Runway 18/36

Dimensions: 2100 x 80 ft. / 640 x 24 m
Surface: turf, in fair condition
SURFACE ROUGH.
Gradient: N
RUNWAY 18  RUNWAY 36
Latitude: 37-05.131528N37-04.786850N
Longitude: 097-57.849218W097-57.888920W
Elevation: 1262.0 ft.1255.0 ft.
Gradient: 0.3% UP
Traffic pattern: leftleft
Runway heading: 178 magnetic, 185 true358 magnetic, 005 true
Obstructions: 18 ft. tree, 500 ft. from runway, 27:1 slope to clear34 ft. trees, 90 ft. from runway, 20 ft. left of centerline, 2:1 slope to clear

Runway B1

Dimensions: 1400 x 1600 ft. / 427 x 488 m
Surface: turf, in poor condition
ROUGH CULTIVATED FIELD.
Traffic pattern: leftleft

Airport Ownership and Management from official FAA records

Ownership: Privately-owned
Owner: HERBERT L. WILCOX
462 SE 40TH AVE
ANTHONY, KS 67003
Phone 620-842-3261
Manager: HERBERT L. WILCOX
462 SE 40TH AVE
ANTHONY, KS 67003
Phone 620-842-3367

Airport Operational Statistics

Aircraft based on the field: 2
Single engine airplanes: 2
    
Aircraft operations: 80/year *
88% local general aviation
12% transient general aviation
* for 12-month period ending 26 June 2015

Additional Remarks

6 BALLOONS BASED ON ARPT.
FARM ANIMALS OCNLY GRAZE ON RY 18/36 & ON B1.
RY B1 TREES EAST & SOUTH; POWERLINE WEST.
PROPANE & HELIUM GAS AVBL; CALL AMGR (620) 842-3367.

Instrument Procedures

There are no published instrument procedures at 7K6.

Some nearby airports with instrument procedures:

KANY - Anthony Municipal Airport (7 nm NW)
8K2 - Harper Municipal Airport (12 nm N)
O53 - Medford Municipal Airport (20 nm SE)
KEGT - Wellington Municipal Airport (31 nm NE)
KBKN - Blackwell-Tonkawa Municipal Airport (36 nm SE)
 
Loc | Ops | Rwys | IFR | FBO | Links
Com | Nav | Svcs | Stats | Notes

Kansas City Aviation Department
 
Area around 7K6 (Wilcox Field Airport)
 
Road maps at: MapQuest Bing Google
 
Aerial photo
WARNING: Photo may not be current or correct
Aerial photo of 7K6 (Wilcox Field Airport)
Photo by Von Rothenberger
Photo taken 03-Sep-2010
looking north.

Do you have a better or more recent aerial photo of Wilcox Field Airport that you would like to share? If so, please send us your photo.

 
Sectional chart

 
Airport distance calculator
Flying to Wilcox Field Airport? Find the distance to fly.

From to 7K6

Sunrise and sunset
Times for 20-Jul-2018
 Local
(UTC-5)
 Zulu
(UTC)
Morning civil twilight05:5910:59
Sunrise06:2811:28
Sunset20:4801:48
Evening civil twilight21:1802:18

Current date and time
Zulu (UTC)  21-Jul-2018 01:05:44
Local (UTC-5)  20-Jul-2018 20:05:44
 
METAR
8K2 
12nm N 
SuperAWOS
210035Z AUTO 10SM 33/25 A2987
TAF
KICT 
42nm NE 
202006Z 2020/2118 10010KT P6SM VCSH SCT070 FM210000 06008KT P6SM FEW070 FM211200 07005KT P6SM FEW250
KEND 
46nm S 
202335Z 2023/2124 13009KT 9999 FEW180 QNH2975INS BECMG 2103/2104 15012G20KT 8000 -SHRA SCT050 BKN140 QNH2978INS BECMG 2105/2106 14012KT 9999 NSW BKN140 QNH2982INS BECMG 2107/2108 12009KT 9999 SCT170 QNH2987INS BECMG 2115/2116 09010G15KT 9999 FEW200 QNH2992INS TX43/2023Z TN25/2112Z AMD LAST NO AMDS AFT 2023 NEXT 2210
KIAB 
46nm NE 
202150Z 2021/2124 10009KT 9999 SCT120 QNH2980INS TEMPO 2104/2107 07012G18KT 6000 -TSRA BKN040CB BKN100 BECMG 2114/2115 06009KT 9999 FEW200 QNH2995INS TX36/2021Z TN22/2111Z
KPNC 
46nm SE 
201728Z 2018/2118 10009KT P6SM SCT250 FM202200 07009KT P6SM SCT120
NOTAMs
Click for the latest NOTAMs
NOTAMs are issued by the DoD/FAA and will open in a separate window not controlled by AirNav.

 

 
 

Would you like to see your business listed on this page?

 If your business provides an interesting product or service to pilots, flight crews, aircraft, or users of the Wilcox Field Airport, you should consider listing it here.  To start the listing process, click on the button below
 
Add a business
 

Other Pages about Wilcox Field Airport

Update a link
 
Copyright © AirNav, LLC. All rights reserved. Privacy Policy  Contact